This demonstration page uses our WeatherBlox Daily Observations layout. Learn more.

41.55636, -103.73856

Hourly Observations for May 21, 2017

Temp ( °F °C ) Dew Point ( °F °C ) Humidity (%) Winds ( mph kmh ) Pressure ( in mb ) Visibility ( mi km ) Precip ( " mm )
12:53 am 00:53 Clear 36 2.2 33 0.6 89 89 N 6 9 30.11 1020 10 16.0934 0 0
1:53 am 01:53 Mostly Cloudy 38 3.3 35 1.7 89 89 NNW 5 7 30.1 1019 10 16.0934 0 0
2:53 am 02:53 Clear 38 3.3 35 1.7 89 89 NNW 6 9 30.1 1019 10 16.0934 0 0
3:53 am 03:53 Mostly Clear 39 3.9 35 1.7 86 86 NNW 8 13 30.09 1019 10 16.0934 0 0
4:53 am 04:53 Clear 39 3.9 35 1.7 86 86 WNW 6 9 30.11 1020 10 16.0934 0 0
5:53 am 05:53 Sunny 38 3.3 35 1.7 89 89 NW 7 11 30.12 1020 10 16.0934 0 0
6:53 am 06:53 Partly Cloudy 43 6.1 38 3.3 82 82 WNW 8 13 30.13 1020 10 16.0934 0 0
7:53 am 07:53 Sunny 46 7.8 39 3.9 77 77 WNW 9 15 30.15 1021 10 16.0934 0 0
8:53 am 08:53 Mostly Cloudy 53 11.7 41 5 64 64 W 7 11 30.15 1021 10 16.0934 0 0
9:53 am 09:53 Sunny 57 13.9 41 5 55 55 WNW 7 11 30.14 1021 10 16.0934 0 0
10:53 am 10:53 Sunny 61 16.1 42 5.6 50 50 W 8 13 30.14 1021 10 16.0934 0 0
11:53 am 11:53 Sunny 64 17.8 40 4.4 41 41 W 10 17 30.11 1020 10 16.0934 0 0
12:53 pm 12:53 Mostly Cloudy 56 13.3 44 6.7 65 65 N 21 33 30.15 1021 10 16.0934 0 0
1:53 pm 13:53 Partly Cloudy 64 17.8 43 6.1 46 46 N 7 11 30.1 1019 10 16.0934 0 0.0254
2:31 pm 14:31 Cloudy with Light Thunderstorms 58 14.4 44 6.7 60 60 WNW 13 20 30.03 1017 10 16.0934 0 0.0254
2:53 pm 14:53 Cloudy with Thunderstorms 50 10 45 7.2 83 83 NW 15 24 30.18 1022 2.5 4.02335 0.06 1.524
3:03 pm 15:03 Cloudy with Heavy Thunderstorms 50 10 44 6.7 80 80 NNW 9 15 30.12 1020 1.5 2.41401 0.09 2.286
3:11 pm 15:11 Cloudy with Nearby Thunderstorms 51 10.6 43 6.1 74 74 W 6 9 30.09 1019 2 3.21868 0.14 3.556
3:21 pm 15:21 Cloudy with Light Rain 51 10.6 44 6.7 77 77 WSW 8 13 30.09 1019 6 9.65604 0.15 3.81
3:53 pm 15:53 Cloudy 55 13 N/A N/A W 9 15 30.13 1020 10 16.0934 0.19 4.826
4:53 pm 16:53 Mostly Cloudy 61 16 N/A N/A WNW 10 17 30.1 1019 10 16.0934 0 0
5:53 pm 17:53 Cloudy 61 16 N/A N/A WNW 13 20 30.12 1020 10 16.0934 0 0
6:08 pm 18:08 Cloudy 55 13 N/A N/A NNW 17 28 30.03 1017 10 16.0934 0 0
6:53 pm 18:53 Cloudy with Light Rain 55 13 N/A N/A NNW 9 15 30.12 1020 9 14.48406 0 0.0254
7:53 pm 19:53 Mostly Cloudy 54 12 N/A N/A NW 3 6 30.14 1021 10 16.0934 0 0.0254
8:53 pm 20:53 Mostly Cloudy 50 10 N/A N/A Calm 30.14 1021 10 16.0934 0 0
9:53 pm 21:53 Mostly Cloudy 52 11 N/A N/A NNW 15 24 30.16 1021 10 16.0934 0 0
10:53 pm 22:53 Clear 46 8 N/A N/A SW 7 11 30.14 1021 10 16.0934 0 0
11:53 pm 23:53 Clear 45 7 N/A N/A NNW 6 9 30.14 1021 10 16.0934 0 0

Powered by AerisWeather